Time,TemperatureF,DewpointF,PressureIn,WindDirection,WindDirectionDegrees,WindSpeedMPH,WindSpeedGustMPH,Humidity,HourlyPrecipIn,Conditions,Clouds,dailyrainin,SoftwareType,DateUTC
2013-09-23 00:14:00,46.0,40.0,30.00,NW,312,1.0,1.0,80,-99.99,,,-99.99,,2013-09-23 04:14:00,
2013-09-23 00:24:00,47.0,41.0,30.00,WNW,296,0.0,3.0,79,-99.99,,,-99.99,,2013-09-23 04:24:00,
2013-09-23 00:43:00,47.0,42.0,30.00,NNW,335,2.0,2.0,82,-99.99,,,-99.99,,2013-09-23 04:43:00,
2013-09-23 00:54:00,47.0,43.0,30.00,NNW,331,1.0,2.0,85,-99.99,,,-99.99,,2013-09-23 04:54:00,
2013-09-23 01:12:00,47.0,44.0,30.00,NNW,345,0.0,0.0,90,-99.99,,,-99.99,,2013-09-23 05:12:00,
2013-09-23 01:23:00,47.0,43.0,30.00,North,350,0.0,0.0,85,-99.99,,,-99.99,,2013-09-23 05:23:00,
2013-09-23 01:43:00,47.0,42.0,30.01,West,271,0.0,0.0,84,-99.99,,,-99.99,,2013-09-23 05:43:00,
2013-09-23 01:53:00,47.0,44.0,30.01,NNW,337,0.0,0.0,90,-99.99,,,-99.99,,2013-09-23 05:53:00,
2013-09-23 02:13:00,47.0,44.0,30.01,NNW,337,0.0,0.0,89,-99.99,,,-99.99,,2013-09-23 06:13:00,
2013-09-23 02:22:00,47.0,44.0,30.02,NW,308,2.0,2.0,88,-99.99,,,-99.99,,2013-09-23 06:22:00,
2013-09-23 02:42:00,47.0,44.0,30.02,NW,311,0.0,0.0,90,-99.99,,,-99.99,,2013-09-23 06:42:00,
2013-09-23 02:52:00,47.0,45.0,30.02,NW,311,0.0,0.0,92,-99.99,,,-99.99,,2013-09-23 06:52:00,
2013-09-23 03:12:00,46.0,44.0,30.02,NW,311,0.0,0.0,94,-99.99,,,-99.99,,2013-09-23 07:12:00,
2013-09-23 03:22:00,44.0,44.0,30.02,NW,311,0.0,0.0,100,-99.99,,,-99.99,,2013-09-23 07:22:00,
2013-09-23 03:42:00,43.0,43.0,30.02,West,259,0.0,1.0,100,-99.99,,,-99.99,,2013-09-23 07:42:00,
2013-09-23 04:42:00,42.0,42.0,30.02,WSW,258,0.0,0.0,100,-99.99,,,-99.99,,2013-09-23 08:42:00,
2013-09-23 05:22:00,42.0,42.0,30.02,WSW,250,0.0,0.0,100,-99.99,,,-99.99,,2013-09-23 09:22:00,
2013-09-23 05:43:00,43.0,43.0,30.03,WSW,250,0.0,0.0,100,-99.99,,,-99.99,,2013-09-23 09:43:00,
2013-09-23 05:53:00,43.0,43.0,30.03,WSW,250,0.0,0.0,100,-99.99,,,-99.99,,2013-09-23 09:53:00,
2013-09-23 06:13:00,44.0,44.0,30.03,WSW,250,0.0,0.0,100,-99.99,,,-99.99,,2013-09-23 10:13:00,
2013-09-23 06:23:00,43.0,43.0,30.03,WSW,250,0.0,0.0,100,-99.99,,,-99.99,,2013-09-23 10:23:00,
2013-09-23 06:42:00,42.0,42.0,30.03,WSW,250,0.0,0.0,100,-99.99,,,-99.99,,2013-09-23 10:42:00,
2013-09-23 06:52:00,42.0,42.0,30.04,WSW,250,0.0,0.0,100,-99.99,,,-99.99,,2013-09-23 10:52:00,
2013-09-23 07:12:00,43.0,43.0,30.05,WSW,250,0.0,0.0,100,-99.99,,,-99.99,,2013-09-23 11:12:00,
2013-09-23 07:22:00,43.0,43.0,30.06,WSW,250,0.0,0.0,100,-99.99,,,-99.99,,2013-09-23 11:22:00,
2013-09-23 07:42:00,44.0,44.0,30.05,WSW,250,0.0,0.0,100,-99.99,,,-99.99,,2013-09-23 11:42:00,
2013-09-23 07:52:00,44.0,44.0,30.06,WSW,250,0.0,0.0,100,-99.99,,,-99.99,,2013-09-23 11:52:00,
2013-09-23 08:11:00,44.0,44.0,30.07,WSW,250,0.0,0.0,100,-99.99,,,-99.99,,2013-09-23 12:11:00,
2013-09-23 08:22:00,44.0,44.0,30.07,WSW,250,0.0,0.0,100,-99.99,,,-99.99,,2013-09-23 12:22:00,
2013-09-23 08:42:00,45.0,45.0,30.07,WSW,250,0.0,0.0,100,-99.99,,,-99.99,,2013-09-23 12:42:00,
2013-09-23 08:52:00,46.0,46.0,30.07,WSW,250,0.0,0.0,100,-99.99,,,-99.99,,2013-09-23 12:52:00,
2013-09-23 09:11:00,48.0,48.0,30.08,WSW,250,0.0,0.0,100,-99.99,,,-99.99,,2013-09-23 13:11:00,
2013-09-23 09:22:00,51.0,50.0,30.09,WSW,250,0.0,0.0,95,-99.99,,,-99.99,,2013-09-23 13:22:00,
2013-09-23 09:42:00,53.0,48.0,30.09,ESE,106,3.0,4.0,82,-99.99,,,-99.99,,2013-09-23 13:42:00,
2013-09-23 09:52:00,53.0,43.0,30.10,NNE,27,0.0,4.0,70,-99.99,,,-99.99,,2013-09-23 13:52:00,
2013-09-23 10:12:00,53.0,44.0,30.10,ENE,67,0.0,0.0,72,-99.99,,,-99.99,,2013-09-23 14:12:00,
2013-09-23 10:22:00,54.0,43.0,30.10,North,10,4.0,8.0,67,-99.99,,,-99.99,,2013-09-23 14:22:00,
2013-09-23 10:42:00,54.0,43.0,30.11,North,0,4.0,6.0,66,-99.99,,,-99.99,,2013-09-23 14:42:00,
2013-09-23 10:52:00,53.0,44.0,30.11,NNW,333,0.0,1.0,71,-99.99,,,-99.99,,2013-09-23 14:52:00,
2013-09-23 11:12:00,55.0,42.0,30.11,NNW,333,3.0,6.0,62,-99.99,,,-99.99,,2013-09-23 15:12:00,
2013-09-23 11:22:00,56.0,41.0,30.12,NNW,329,2.0,4.0,58,-99.99,,,-99.99,,2013-09-23 15:22:00,
2013-09-23 11:43:00,55.0,41.0,30.12,West,267,7.0,9.0,60,-99.99,,,-99.99,,2013-09-23 15:43:00,
2013-09-23 11:54:00,56.0,44.0,30.12,West,259,1.0,2.0,65,-99.99,,,-99.99,,2013-09-23 15:54:00,
2013-09-23 12:12:00,56.0,44.0,30.12,NNW,331,0.0,0.0,63,-99.99,,,-99.99,,2013-09-23 16:12:00,
2013-09-23 12:24:00,56.0,41.0,30.12,NNW,347,6.0,8.0,57,-99.99,,,-99.99,,2013-09-23 16:24:00,
2013-09-23 12:43:00,56.0,43.0,30.13,East,79,1.0,2.0,62,-99.99,,,-99.99,,2013-09-23 16:43:00,
2013-09-23 12:53:00,57.0,39.0,30.13,NW,323,5.0,7.0,51,-99.99,,,-99.99,,2013-09-23 16:53:00,
2013-09-23 13:12:00,56.0,40.0,30.12,NNE,26,3.0,4.0,55,-99.99,,,-99.99,,2013-09-23 17:12:00,
2013-09-23 13:24:00,56.0,40.0,30.12,North,352,4.0,6.0,55,-99.99,,,-99.99,,2013-09-23 17:24:00,
2013-09-23 13:42:00,56.0,41.0,30.12,NNE,19,2.0,4.0,57,-99.99,,,-99.99,,2013-09-23 17:42:00,
2013-09-23 13:52:00,56.0,41.0,30.11,WNW,287,0.0,11.0,58,-99.99,,,-99.99,,2013-09-23 17:52:00,
2013-09-23 14:13:00,57.0,43.0,30.11,WNW,286,4.0,7.0,59,-99.99,,,-99.99,,2013-09-23 18:13:00,
2013-09-23 14:22:00,57.0,41.0,30.11,WNW,295,0.0,4.0,55,-99.99,,,-99.99,,2013-09-23 18:22:00,
2013-09-23 14:42:00,58.0,40.0,30.11,West,276,2.0,4.0,52,-99.99,,,-99.99,,2013-09-23 18:42:00,
2013-09-23 14:52:00,58.0,40.0,30.10,WNW,282,0.0,0.0,52,-99.99,,,-99.99,,2013-09-23 18:52:00,
2013-09-23 15:12:00,58.0,40.0,30.10,NNW,331,2.0,4.0,51,-99.99,,,-99.99,,2013-09-23 19:12:00,
2013-09-23 15:22:00,58.0,43.0,30.09,ESE,108,4.0,4.0,57,-99.99,,,-99.99,,2013-09-23 19:22:00,
2013-09-23 15:42:00,58.0,40.0,30.09,NNW,348,3.0,8.0,51,-99.99,,,-99.99,,2013-09-23 19:42:00,
2013-09-23 15:53:00,58.0,39.0,30.09,NW,318,0.0,6.0,49,-99.99,,,-99.99,,2013-09-23 19:53:00,
2013-09-23 16:12:00,59.0,41.0,30.08,WNW,282,0.0,3.0,52,-99.99,,,-99.99,,2013-09-23 20:12:00,
2013-09-23 16:22:00,59.0,41.0,30.09,North,2,5.0,6.0,52,-99.99,,,-99.99,,2013-09-23 20:22:00,
2013-09-23 16:42:00,59.0,41.0,30.08,NW,315,4.0,6.0,51,-99.99,,,-99.99,,2013-09-23 20:42:00,
2013-09-23 16:52:00,59.0,43.0,30.08,NW,304,5.0,8.0,55,-99.99,,,-99.99,,2013-09-23 20:52:00,
2013-09-23 17:12:00,59.0,41.0,30.08,NW,323,2.0,5.0,51,-99.99,,,-99.99,,2013-09-23 21:12:00,
2013-09-23 17:23:00,58.0,40.0,30.08,NE,47,6.0,6.0,52,-99.99,,,-99.99,,2013-09-23 21:23:00,
2013-09-23 17:44:00,58.0,41.0,30.08,North,355,4.0,5.0,53,-99.99,,,-99.99,,2013-09-23 21:44:00,
2013-09-23 17:54:00,58.0,41.0,30.08,North,351,3.0,4.0,53,-99.99,,,-99.99,,2013-09-23 21:54:00,
2013-09-23 18:14:00,57.0,41.0,30.08,NE,34,0.0,0.0,54,-99.99,,,-99.99,,2013-09-23 22:14:00,
2013-09-23 18:24:00,57.0,42.0,30.08,NNW,340,0.0,1.0,58,-99.99,,,-99.99,,2013-09-23 22:24:00,
2013-09-23 18:43:00,56.0,43.0,30.07,NE,40,2.0,2.0,62,-99.99,,,-99.99,,2013-09-23 22:43:00,
2013-09-23 18:54:00,55.0,47.0,30.08,SE,135,2.0,2.0,73,-99.99,,,-99.99,,2013-09-23 22:54:00,
2013-09-23 19:12:00,53.0,45.0,30.07,East,98,0.0,0.0,75,-99.99,,,-99.99,,2013-09-23 23:12:00,
2013-09-23 19:22:00,53.0,46.0,30.07,East,98,0.0,0.0,78,-99.99,,,-99.99,,2013-09-23 23:22:00,
2013-09-23 19:53:00,50.0,46.0,30.07,SSE,164,0.0,0.0,87,-99.99,,,-99.99,,2013-09-23 23:53:00,
2013-09-23 21:43:00,45.0,45.0,30.07,SSE,164,0.0,0.0,100,-99.99,,,-99.99,,2013-09-24 01:43:00,
2013-09-23 21:52:00,45.0,45.0,30.07,SSE,164,0.0,0.0,100,-99.99,,,-99.99,,2013-09-24 01:52:00,
2013-09-23 22:42:00,44.0,44.0,30.07,SSE,164,0.0,0.0,100,-99.99,,,-99.99,,2013-09-24 02:42:00,
2013-09-23 22:52:00,43.0,43.0,30.07,SSE,164,0.0,0.0,100,-99.99,,,-99.99,,2013-09-24 02:52:00,
2013-09-23 23:44:00,43.0,43.0,30.07,SSE,164,0.0,0.0,100,-99.99,,,-99.99,,2013-09-24 03:44:00,